EW9411 Weather Reports


Display with metric or nautical units.
time (UTC)temp
F
wind
direction
speed
MPH
gust
MPH
rain 1hr
in
rain 24hr
in
rain mn
in
humidity
%
barometer
mb
20260902040119 67 79 3.0 6.0 0.00 0.63 0.00 95 1017.2
20260902035920 67 85 3.0 6.0 0.00 0.63 0.00 95 1017.2
20260902035617 67 99 2.0 4.0 0.00 0.63 0.00 95 1017.2
20260902035423 67 99 2.0 4.0 0.00 0.63 0.00 95 1017.1
20260902035122 67 100 1.0 4.0 0.00 0.63 0.00 95 1017.1
20260902034921 67 100 0.0 4.0 0.00 0.65 0.63 95 1017.1
20260902034647 67 100 2.0 4.0 0.00 0.65 0.63 95 1017.0
20260902034425 67 100 2.0 4.0 0.00 0.65 0.63 95 1016.9
20260902034123 67 100 1.0 4.0 0.00 0.65 0.63 95 1016.8
20260902033951 67 100 1.0 4.0 0.00 0.65 0.63 95 1016.8
20260902033627 67 100 1.0 4.0 0.00 0.65 0.63 95 1016.7
20260902033408 67 100 2.0 4.0 0.00 0.65 0.63 95 1016.7
20260902033106 67 100 2.0 4.0 0.00 0.65 0.63 95 1016.7
20260902032907 67 100 3.0 4.0 0.00 0.65 0.63 95 1016.7
20260902032605 67 107 1.0 7.0 0.00 0.65 0.63 95 1016.7
20260902032406 67 107 1.0 7.0 0.00 0.65 0.63 95 1016.8
20260902032131 67 107 3.0 8.0 0.00 0.65 0.63 95 1016.7
20260902031909 67 108 2.0 9.0 0.00 0.65 0.63 95 1016.6
20260902031606 67 53 4.0 10.0 0.00 0.65 0.63 95 1016.4
20260902031413 67 104 5.0 10.0 0.00 0.65 0.63 95 1016.3
20260902031112 67 98 5.0 10.0 0.00 0.65 0.63 95 1016.2
20260902030911 67 113 3.0 8.0 0.00 0.65 0.63 95 1016.2
20260902030609 68 96 2.0 7.0 0.00 0.65 0.63 95 1016.2
20260902030409 68 96 2.0 7.0 0.00 0.65 0.63 95 1016.3
20260902030134 68 96 2.0 7.0 0.00 0.65 0.63 95 1016.2
20260902025940 68 96 1.0 4.0 0.00 0.65 0.63 95 1016.3
20260902025613 68 96 2.0 5.0 0.00 0.65 0.63 95 1016.2
20260902025418 68 96 2.0 5.0 0.00 0.65 0.63 95 1016.3
20260902025112 68 67 0.0 7.0 0.00 0.65 0.63 95 1016.3
20260902024916 68 67 2.0 9.0 0.00 0.65 0.63 95 1016.3
20260902024610 68 89 4.0 9.0 0.00 0.65 0.63 95 1016.2
20260902024421 68 62 3.0 9.0 0.00 0.65 0.63 95 1016.2
20260902024135 68 97 3.0 7.0 0.00 0.65 0.63 95 1016.2
20260902023928 68 101 2.0 6.0 0.00 0.65 0.63 95 1016.2
20260902023641 68 105 2.0 6.0 0.00 0.65 0.63 95 1016.2
20260902023430 68 71 2.0 6.0 0.00 0.65 0.63 95 1016.2
20260902023123 68 64 3.0 6.0 0.00 0.65 0.63 95 1016.1
20260902022907 68 56 3.0 7.0 0.00 0.65 0.63 95 1016.0
20260902022621 69 119 3.0 7.0 0.00 0.65 0.63 95 1016.0
20260902022406 69 54 1.0 8.0 0.00 0.65 0.63 95 1015.9
20260902022119 69 54 3.0 8.0 0.00 0.65 0.63 95 1015.9
20260902021929 69 52 3.0 8.0 0.00 0.65 0.63 95 1015.8
20260902021623 69 112 1.0 4.0 0.00 0.65 0.63 95 1015.7
20260902021429 69 112 2.0 4.0 0.00 0.65 0.63 96 1015.6
20260902021128 69 113 0.0 6.0 0.00 0.65 0.63 96 1015.5
20260902020912 69 113 1.0 7.0 0.00 0.65 0.63 95 1015.4
20260902020627 69 113 1.0 7.0 0.00 0.65 0.63 96 1015.3
20260902020419 69 113 3.0 7.0 0.00 0.65 0.63 95 1015.2
20260902020112 69 58 3.0 6.0 0.00 0.65 0.63 95 1015.2
20260902015917 69 64 2.0 5.0 0.00 0.65 0.63 95 1015.2
20260902015611 69 64 1.0 5.0 0.00 0.65 0.63 95 1015.1
20260902015416 69 64 2.0 5.0 0.00 0.65 0.63 95 1015.1
20260902015110 70 65 2.0 5.0 0.00 0.65 0.63 95 1015.0
20260902014921 70 65 2.0 5.0 0.00 0.65 0.63 95 1015.0
20260902014614 70 106 2.0 6.0 0.00 0.65 0.63 95 1015.0
20260902014419 70 106 2.0 6.0 0.00 0.65 0.63 95 1015.0
20260902014113 70 95 2.0 6.0 0.00 0.65 0.63 95 1015.0
20260902013918 70 96 3.0 8.0 0.00 0.65 0.63 95 1015.2
20260902013618 70 53 2.0 11.0 0.00 0.65 0.63 95 1015.1
20260902013439 70 53 3.0 11.0 0.00 0.65 0.63 95 1015.2
20260902013116 70 78 5.0 11.0 0.00 0.65 0.63 95 1015.3
20260902012924 71 96 3.0 7.0 0.00 0.65 0.63 95 1015.3
20260902012622 71 44 4.0 9.0 0.00 0.65 0.63 95 1015.0
20260902012420 71 74 2.0 9.0 0.00 0.65 0.63 95 1014.8
20260902012118 71 65 3.0 9.0 0.00 0.65 0.63 95 1014.9
20260902011946 72 56 3.0 9.0 0.00 0.65 0.63 96 1014.8
20260902011624 72 108 3.0 4.0 0.00 0.65 0.63 95 1014.6
20260902011423 72 90 3.0 4.0 0.00 0.65 0.63 95 1014.7
20260902011128 72 98 2.0 4.0 0.00 0.65 0.63 95 1014.6
20260902010928 72 123 2.0 4.0 0.00 0.65 0.63 95 1014.6
20260902010626 72 154 0.0 5.0 0.00 0.65 0.63 96 1014.6
20260902010405 72 154 1.0 5.0 0.00 0.65 0.63 96 1014.6
20260902010130 72 154 2.0 5.0 0.00 0.65 0.63 95 1014.6
20260902005930 72 154 3.0 7.0 0.00 0.65 0.63 96 1014.6
20260902005628 72 139 2.0 7.0 0.00 0.65 0.63 96 1014.5
20260902005434 72 108 2.0 11.0 0.00 0.65 0.63 96 1014.4
20260902005111 73 138 3.0 11.0 0.00 0.65 0.63 95 1014.2
20260902004912 73 148 2.0 11.0 0.00 0.65 0.63 95 1014.1
20260902004636 73 75 4.0 10.0 0.00 0.65 0.63 95 1013.9
20260902004416 73 87 3.0 8.0 0.00 0.65 0.63 95 1013.8
20260902004112 74 115 4.0 8.0 0.00 0.65 0.63 95 1013.8
20260902003920 74 98 3.0 7.0 0.00 0.65 0.63 95 1013.7
20260902003638 74 131 2.0 8.0 0.00 0.65 0.63 96 1013.8
20260902003418 74 135 3.0 8.0 0.00 0.65 0.63 96 1013.9
20260902003116 75 92 3.0 9.0 0.00 0.65 0.63 96 1013.8
20260902002943 75 92 4.0 9.0 0.00 0.65 0.63 96 1013.8
20260902002621 75 123 3.0 9.0 0.00 0.65 0.63 96 1013.7
20260902002448 75 95 4.0 9.0 0.00 0.65 0.63 96 1013.6
20260902002106 75 98 1.0 4.0 0.00 0.65 0.63 96 1013.6
20260902001907 75 214 0.0 4.0 0.00 0.65 0.63 96 1013.7
20260902001605 75 214 0.0 5.0 0.00 0.65 0.63 96 1013.6
20260902001406 76 214 1.0 5.0 0.00 0.65 0.63 96 1013.5
20260902001127 76 214 3.0 5.0 0.00 0.65 0.63 96 1013.6
20260902000911 76 216 3.0 6.0 0.00 0.65 0.63 96 1013.6
20260902000605 76 231 3.0 4.0 0.00 0.65 0.63 96 1013.6
20260902000416 76 231 1.0 4.0 0.00 0.65 0.63 97 1013.5
20260902000110 76 231 0.0 0.0 0.00 0.65 0.63 97 1013.4
20260901235936 76 231 0.0 0.0 0.00 0.65 0.63 97 1013.2
20260901235609 76 231 0.0 0.0 0.00 0.65 0.63 97 1013.1
20260901235420 76 231 0.0 0.0 0.00 0.65 0.63 97 1013.1
20260901235114 76 231 0.0 1.0 0.00 0.65 0.63 96 1013.2
20260901234919 76 231 0.0 1.0 0.00 0.65 0.63 96 1013.2
20260901234640 76 231 0.0 1.0 0.00 0.65 0.63 96 1013.5
20260901234424 76 231 0.0 1.0 0.00 0.65 0.63 96 1013.6
20260901234118 76 231 0.0 1.0 0.00 0.65 0.63 96 1013.5
20260901233923 77 231 0.0 2.0 0.00 0.65 0.63 96 1013.5
20260901233617 77 231 0.0 2.0 0.00 0.65 0.63 96 1013.4
20260901233428 76 231 0.0 2.0 0.00 0.65 0.63 96 1013.3
20260901233122 76 231 0.0 1.0 0.00 0.65 0.63 96 1013.2
20260901232907 76 231 0.0 1.0 0.00 0.65 0.63 96 1013.2
20260901232649 76 231 0.0 1.0 0.00 0.65 0.63 96 1013.3
20260901232405 77 231 0.0 1.0 0.01 0.65 0.63 96 1013.3
20260901232105 77 231 0.0 2.0 0.04 0.65 0.63 96 1013.4
20260901231910 77 231 0.0 2.0 0.07 0.65 0.63 96 1013.4
20260901231631 77 231 1.0 3.0 0.11 0.65 0.63 96 1013.5
20260901231413 77 231 1.0 3.0 0.11 0.65 0.63 96 1013.5
20260901231107 77 231 1.0 4.0 0.13 0.65 0.63 96 1013.7
20260901230912 77 231 1.0 4.0 0.15 0.65 0.63 96 1013.7
20260901230606 76 231 2.0 4.0 0.18 0.65 0.63 96 1013.5
20260901230417 76 231 3.0 4.0 0.20 0.65 0.63 96 1013.5
20260901230111 77 291 2.0 3.0 0.21 0.65 0.63 96 1013.5
20260901225916 77 291 1.0 3.0 0.21 0.65 0.63 96 1013.4
20260901225631 77 291 0.0 3.0 0.22 0.65 0.63 96 1013.2
20260901225438 77 291 1.0 4.0 0.22 0.65 0.63 96 1013.1
20260901225140 77 291 2.0 4.0 0.22 0.65 0.63 96 1013.0
20260901224918 76 291 1.0 4.0 0.22 0.65 0.63 96 1012.9
20260901224617 77 291 3.0 4.0 0.22 0.65 0.63 95 1012.9
20260901224416 77 328 2.0 4.0 0.22 0.65 0.63 95 1012.8
20260901224113 77 351 1.0 1.0 0.22 0.65 0.63 95 1013.0
20260901223921 77 351 0.0 1.0 0.22 0.65 0.63 95 1013.0
20260901223618 77 351 0.0 2.0 0.22 0.65 0.63 95 1012.9
20260901223419 77 351 0.0 3.0 0.22 0.65 0.63 94 1012.9
20260901223118 77 351 0.0 3.0 0.22 0.65 0.63 95 1012.8
20260901222918 77 351 2.0 5.0 0.22 0.65 0.63 94 1012.7
20260901222624 77 351 1.0 5.0 0.22 0.65 0.63 94 1012.8
20260901222423 77 351 1.0 5.0 0.21 0.64 0.62 94 1013.0
20260901222121 78 351 3.0 5.0 0.18 0.61 0.59 94 1013.0
20260901221922 78 27 3.0 4.0 0.15 0.58 0.56 94 1012.6
20260901221627 78 24 2.0 4.0 0.11 0.54 0.52 93 1012.2
20260901221446 78 351 1.0 5.0 0.11 0.54 0.52 93 1012.3
20260901221123 78 351 0.0 6.0 0.08 0.51 0.49 93 1012.5
20260901220931 78 351 0.0 6.0 0.07 0.50 0.48 92 1012.7
20260901220628 79 351 3.0 6.0 0.04 0.47 0.45 92 1012.9
20260901220409 79 1 3.0 7.0 0.01 0.44 0.43 91 1012.8
20260901220128 79 56 2.0 5.0 0.01 0.44 0.42 91 1012.6
20260901215907 79 58 3.0 5.0 0.01 0.44 0.42 90 1012.4
20260901215614 79 59 1.0 5.0 0.00 0.43 0.41 90 1012.4
20260901215412 79 59 2.0 5.0 0.00 0.43 0.41 90 1012.6
20260901215132 79 60 3.0 5.0 0.00 0.43 0.41 89 1012.6
20260901214911 80 62 3.0 5.0 0.00 0.43 0.41 89 1012.6
20260901214616 80 45 1.0 3.0 0.00 0.43 0.41 89 1012.7
20260901214417 80 45 2.0 3.0 0.00 0.43 0.41 89 1012.8
20260901214115 80 46 1.0 6.0 0.00 0.43 0.41 89 1012.7
20260901213915 80 46 1.0 6.0 0.00 0.43 0.41 89 1012.6
20260901213613 80 46 3.0 6.0 0.00 0.43 0.41 88 1012.5
20260901213420 81 45 3.0 4.0 0.00 0.43 0.41 89 1012.6
20260901213140 81 53 2.0 4.0 0.00 0.43 0.41 88 1012.6
20260901212946 81 53 2.0 5.0 0.00 0.43 0.41 89 1012.6
20260901212644 81 54 2.0 5.0 0.00 0.43 0.41 88 1012.4
20260901212423 81 54 1.0 5.0 0.00 0.43 0.41 88 1012.3
20260901212127 81 57 3.0 5.0 0.00 0.43 0.41 88 1012.4
20260901211909 81 346 2.0 5.0 0.00 0.43 0.41 88 1012.5
20260901211606 81 21 2.0 4.0 0.00 0.43 0.41 88 1012.6
20260901211407 81 21 2.0 6.0 0.00 0.43 0.41 88 1012.4
20260901211105 81 6 1.0 8.0 0.00 0.43 0.41 88 1012.5
20260901210906 81 356 3.0 8.0 0.00 0.43 0.41 88 1012.6
20260901210610 81 356 4.0 8.0 0.00 0.43 0.41 88 1012.7
20260901210411 82 346 4.0 6.0 0.00 0.43 0.41 88 1012.7
20260901210109 82 53 1.0 5.0 0.00 0.43 0.41 87 1012.4
20260901205936 82 53 1.0 5.0 0.00 0.43 0.41 87 1012.3
20260901205613 82 58 3.0 5.0 0.00 0.43 0.41 87 1012.3
20260901205435 82 58 1.0 5.0 0.00 0.43 0.41 87 1012.3
20260901205118 82 58 3.0 5.0 0.00 0.43 0.41 87 1012.4
20260901204919 83 59 2.0 5.0 0.00 0.43 0.41 87 1012.3
20260901204616 83 92 1.0 7.0 0.00 0.43 0.41 87 1012.3
20260901204417 83 92 2.0 7.0 0.00 0.43 0.41 86 1012.3
20260901204115 83 94 2.0 7.0 0.00 0.43 0.41 86 1012.3
20260901203942 83 91 4.0 7.0 0.00 0.43 0.41 85 1012.3
20260901203616 83 119 3.0 7.0 0.00 0.43 0.41 85 1012.3
20260901203420 83 69 4.0 7.0 0.00 0.43 0.41 85 1012.3
20260901203112 83 137 2.0 4.0 0.00 0.43 0.41 86 1012.3
20260901202922 83 137 2.0 4.0 0.00 0.43 0.41 86 1012.3
20260901202616 82 137 0.0 0.0 0.00 0.43 0.41 87 1012.3
20260901202421 82 137 0.0 0.0 0.00 0.43 0.41 87 1012.3
20260901202115 82 137 0.0 0.0 0.00 0.43 0.41 87 1012.4
20260901201920 82 137 0.0 0.0 0.00 0.43 0.41 87 1012.5
20260901201605 82 137 0.0 0.0 0.00 0.43 0.41 87 1012.5
20260901201405 82 137 0.0 1.0 0.00 0.43 0.41 86 1012.4
20260901201119 82 137 0.0 3.0 0.00 0.43 0.41 86 1012.4
20260901200924 82 137 0.0 3.0 0.00 0.43 0.41 86 1012.3
20260901200623 82 137 0.0 3.0 0.00 0.43 0.41 86 1012.3
20260901200429 82 137 1.0 3.0 0.00 0.43 0.41 86 1012.3
20260901200121 82 137 1.0 3.0 0.00 0.43 0.41 86 1012.4
20260901195905 82 137 0.0 3.0 0.00 0.43 0.41 86 1012.3
20260901195625 82 137 2.0 3.0 0.00 0.43 0.41 87 1012.3
20260901195410 82 137 1.0 3.0 0.00 0.43 0.41 87 1012.3
20260901195124 82 137 0.0 2.0 0.00 0.43 0.41 88 1012.3
20260901194908 82 137 0.0 2.0 0.00 0.43 0.41 87 1012.4
20260901194621 82 137 0.0 1.0 0.00 0.43 0.41 88 1012.5
20260901194404 82 137 0.0 3.0 0.00 0.43 0.41 88 1012.5
20260901194126 81 137 0.0 3.0 0.00 0.43 0.41 88 1012.5
20260901193910 81 137 1.0 3.0 0.00 0.43 0.41 88 1012.5
20260901193631 81 137 1.0 2.0 0.00 0.43 0.41 88 1012.5
20260901193415 81 137 1.0 2.0 0.00 0.43 0.41 88 1012.5
20260901193109 81 137 1.0 3.0 0.00 0.43 0.41 89 1012.5
20260901192939 81 137 1.0 4.0 0.00 0.43 0.41 88 1012.5
20260901192613 81 137 2.0 4.0 0.00 0.43 0.41 88 1012.4
20260901192416 81 137 1.0 4.0 0.00 0.43 0.41 88 1012.5
20260901192108 81 135 2.0 4.0 0.00 0.43 0.41 88 1012.5
20260901191914 81 135 2.0 4.0 0.00 0.43 0.41 88 1012.5
20260901191614 81 127 2.0 6.0 0.00 0.43 0.41 89 1012.5
20260901191417 81 127 1.0 6.0 0.00 0.43 0.41 88 1012.5
20260901191140 81 116 3.0 6.0 0.00 0.43 0.41 88 1012.5
20260901190939 81 104 3.0 6.0 0.00 0.43 0.41 88 1012.5
20260901190613 81 160 2.0 5.0 0.00 0.43 0.41 89 1012.6
20260901190421 81 160 1.0 5.0 0.00 0.43 0.41 89 1012.7
20260901190117 81 160 2.0 5.0 0.00 0.43 0.41 90 1012.7
20260901185918 81 127 2.0 4.0 0.00 0.43 0.41 90 1012.7
20260901185644 80 127 2.0 4.0 0.00 0.43 0.41 91 1012.7
20260901185422 80 177 0.0 4.0 0.00 0.43 0.41 92 1012.7
20260901185118 80 178 1.0 6.0 0.00 0.43 0.41 92 1012.8
20260901184919 80 177 1.0 6.0 0.00 0.43 0.41 92 1012.8
20260901184623 79 173 2.0 7.0 0.00 0.43 0.41 92 1012.8
20260901184424 79 95 3.0 7.0 0.00 0.43 0.41 93 1012.8
20260901184122 79 100 2.0 7.0 0.00 0.43 0.41 93 1012.8
20260901183923 79 114 2.0 4.0 0.00 0.43 0.41 94 1012.8
20260901183620 79 116 1.0 4.0 0.00 0.43 0.41 95 1012.8
20260901183427 78 116 1.0 4.0 0.00 0.43 0.41 95 1012.8
20260901183126 78 133 2.0 4.0 0.00 0.43 0.41 96 1012.7
20260901182905 78 148 1.0 5.0 0.00 0.43 0.41 96 1012.8
20260901182629 78 225 1.0 4.0 0.00 0.43 0.41 96 1012.7
20260901182430 78 225 0.0 4.0 0.00 0.43 0.41 97 1012.8
20260901182108 77 225 0.0 4.0 0.00 0.43 0.41 96 1012.9
20260901181908 77 225 2.0 4.0 0.00 0.43 0.41 97 1012.8
20260901181613 78 200 1.0 3.0 0.00 0.43 0.41 98 1012.8
20260901181413 77 200 1.0 3.0 0.00 0.43 0.41 98 1012.8
20260901181111 77 200 2.0 3.0 0.00 0.43 0.41 98 1012.8
20260901180911 77 200 1.0 3.0 0.00 0.43 0.41 98 1012.9
20260901180609 77 201 1.0 3.0 0.00 0.43 0.41 99 1013.0
20260901180435 77 201 1.0 3.0 0.00 0.43 0.41 99 1012.9
20260901180133 76 202 0.0 3.0 0.01 0.43 0.41 98 1012.9
20260901175918 76 202 1.0 3.0 0.02 0.43 0.41 98 1012.9
20260901175616 76 202 0.0 2.0 0.07 0.43 0.41 98 1012.9
20260901175437 76 202 0.0 0.0 0.13 0.43 0.41 98 1013.0
20260901175120 76 202 0.0 1.0 0.17 0.43 0.41 98 1013.0
20260901174921 75 202 0.0 2.0 0.17 0.43 0.41 98 1013.0
20260901174619 75 202 0.0 2.0 0.17 0.43 0.41 98 1013.0
20260901174420 75 202 0.0 3.0 0.17 0.43 0.41 98 1012.9
20260901174118 75 202 0.0 3.0 0.17 0.43 0.41 98 1012.8
20260901173924 75 202 1.0 3.0 0.17 0.43 0.41 98 1012.8
20260901173623 75 202 2.0 3.0 0.17 0.43 0.41 99 1012.8
20260901173423 75 203 1.0 4.0 0.17 0.43 0.41 99 1012.8
20260901173121 75 212 1.0 4.0 0.17 0.43 0.41 98 1012.8
20260901172922 75 212 1.0 4.0 0.17 0.43 0.41 98 1012.8
20260901172625 75 212 1.0 5.0 0.17 0.43 0.41 99 1012.8
20260901172425 75 212 0.0 6.0 0.17 0.43 0.41 99 1012.8
20260901172122 74 212 1.0 6.0 0.17 0.43 0.41 98 1012.8
20260901171922 74 212 2.0 6.0 0.17 0.43 0.41 98 1012.8
20260901171627 74 202 3.0 6.0 0.17 0.43 0.41 98 1012.8
20260901171406 74 208 3.0 7.0 0.17 0.43 0.41 99 1012.8
20260901171123 73 192 3.0 7.0 0.17 0.43 0.41 98 1012.9
20260901170923 73 216 4.0 9.0 0.17 0.43 0.41 98 1012.8
20260901170626 73 185 4.0 9.0 0.17 0.43 0.41 98 1012.7
20260901170406 73 218 4.0 9.0 0.17 0.43 0.41 98 1012.7
20260901170123 73 115 4.0 9.0 0.16 0.42 0.40 98 1012.7
20260901165922 73 153 4.0 6.0 0.15 0.41 0.39 97 1013.1
20260901165619 73 199 4.0 6.0 0.10 0.36 0.34 98 1014.0
20260901165426 73 246 2.0 5.0 0.03 0.29 0.27 98 1014.4
20260901165110 73 246 1.0 5.0 0.00 0.26 0.24 97 1014.4
20260901164915 73 246 1.0 5.0 0.00 0.26 0.24 97 1014.2
20260901164615 73 246 3.0 5.0 0.00 0.26 0.24 98 1014.2
20260901164420 73 202 1.0 4.0 0.00 0.26 0.24 98 1014.2
20260901164113 73 202 1.0 4.0 0.00 0.26 0.24 98 1014.1
20260901163918 73 202 2.0 4.0 0.00 0.26 0.24 97 1014.0
20260901163638 73 201 3.0 7.0 0.01 0.26 0.24 98 1014.0
20260901163413 73 201 3.0 8.0 0.02 0.26 0.24 98 1013.9
20260901163107 73 231 3.0 8.0 0.02 0.26 0.24 98 1013.9
20260901162912 73 228 5.0 8.0 0.02 0.26 0.24 98 1013.9
20260901162605 73 202 3.0 6.0 0.02 0.26 0.24 98 1013.8
20260901162410 73 218 3.0 6.0 0.02 0.26 0.24 98 1013.7
20260901162130 73 218 3.0 6.0 0.04 0.26 0.24 98 1013.8
20260901161913 73 193 4.0 6.0 0.05 0.26 0.24 98 1013.8
20260901161607 73 244 3.0 5.0 0.05 0.26 0.24 98 1013.6
20260901161411 73 229 3.0 7.0 0.05 0.26 0.24 98 1013.7
20260901161105 73 227 2.0 7.0 0.05 0.26 0.24 98 1013.7
20260901160916 72 227 2.0 7.0 0.05 0.26 0.24 97 1013.7
20260901160610 72 232 2.0 6.0 0.06 0.26 0.24 98 1013.6
20260901160414 72 194 3.0 6.0 0.06 0.26 0.24 97 1013.5
20260901160107 72 194 3.0 6.0 0.07 0.26 0.24 97 1013.6
20260901155917 72 191 4.0 6.0 0.08 0.26 0.24 97 1013.7
20260901155610 72 202 3.0 5.0 0.09 0.26 0.24 98 1013.8
20260901155415 73 200 2.0 5.0 0.10 0.26 0.24 98 1013.9
20260901155109 73 259 3.0 4.0 0.10 0.26 0.24 98 1014.1
20260901154912 73 275 2.0 4.0 0.10 0.26 0.24 98 1014.2
20260901154606 72 278 2.0 4.0 0.10 0.26 0.24 98 1014.3
20260901154417 72 278 2.0 4.0 0.10 0.26 0.24 97 1014.3
20260901154111 72 279 2.0 4.0 0.11 0.26 0.24 97 1014.4
20260901153915 72 279 3.0 4.0 0.11 0.26 0.24 97 1014.3
20260901153608 72 287 2.0 3.0 0.09 0.24 0.22 97 1014.4
20260901153413 72 287 1.0 2.0 0.10 0.24 0.22 97 1014.4
20260901153113 72 287 1.0 3.0 0.10 0.24 0.22 97 1014.6
20260901152938 72 287 1.0 3.0 0.10 0.24 0.22 97 1014.6
20260901152611 72 287 0.0 3.0 0.11 0.24 0.22 97 1014.7
20260901152421 72 287 1.0 3.0 0.11 0.24 0.22 97 1014.5
20260901152116 72 287 2.0 3.0 0.09 0.22 0.20 97 1014.8
20260901151940 72 287 1.0 2.0 0.08 0.21 0.19 97 1014.9
20260901151618 72 287 0.0 1.0 0.08 0.21 0.19 97 1015.0
20260901151423 72 287 0.0 1.0 0.08 0.21 0.19 97 1015.1
20260901151117 72 287 0.0 1.0 0.08 0.21 0.19 97 1015.1
20260901150922 72 287 0.0 1.0 0.08 0.21 0.19 97 1015.1
20260901150615 72 287 0.0 1.0 0.07 0.20 0.18 97 1015.2
20260901150445 72 287 0.0 1.0 0.07 0.20 0.18 97 1015.2
20260901150118 72 287 0.0 1.0 0.06 0.19 0.17 97 1015.1
20260901145930 72 287 0.0 2.0 0.05 0.18 0.16 97 1015.0
20260901145621 72 287 0.0 2.0 0.04 0.17 0.15 97 1015.0
20260901145405 72 287 0.0 2.0 0.03 0.16 0.14 97 1015.0
20260901145120 72 287 1.0 2.0 0.03 0.16 0.14 98 1014.9
20260901144931 72 287 0.0 1.0 0.03 0.16 0.14 97 1014.9
20260901144624 72 287 0.0 0.0 0.03 0.16 0.14 97 1014.9
20260901144409 72 287 0.0 2.0 0.03 0.16 0.14 97 1015.0
20260901144122 72 287 0.0 3.0 0.02 0.15 0.13 97 1015.1
20260901143907 72 287 0.0 3.0 0.02 0.15 0.13 97 1014.9
20260901143627 72 287 2.0 3.0 0.02 0.15 0.13 97 1014.9
20260901143405 72 290 1.0 2.0 0.01 0.14 0.12 97 1014.9
20260901143104 72 290 0.0 1.0 0.01 0.14 0.12 97 1015.0
20260901142909 72 290 0.0 2.0 0.01 0.14 0.12 97 1015.0
20260901142624 72 290 0.0 2.0 0.00 0.13 0.11 97 1015.0
20260901142408 72 290 0.0 4.0 0.00 0.13 0.11 97 1015.0
20260901142128 72 290 1.0 4.0 0.00 0.13 0.11 97 1015.0
20260901141913 72 290 1.0 4.0 0.00 0.13 0.11 97 1015.0
20260901141607 72 290 2.0 4.0 0.00 0.13 0.11 97 1015.1
20260901141412 72 202 1.0 2.0 0.00 0.13 0.11 97 1015.0
20260901141106 72 202 0.0 1.0 0.00 0.13 0.11 97 1014.8
20260901140916 72 202 0.0 1.0 0.00 0.13 0.11 97 1014.7
20260901140610 72 202 0.0 1.0 0.00 0.13 0.11 98 1014.8
20260901140435 72 202 1.0 1.0 0.00 0.13 0.11 98 1014.7
20260901140113 72 202 0.0 1.0 0.00 0.13 0.11 98 1014.6
20260901135913 72 202 0.0 2.0 0.00 0.13 0.11 98 1014.5
20260901135611 72 202 0.0 3.0 0.00 0.13 0.11 97 1014.3
20260901135412 72 202 1.0 3.0 0.00 0.13 0.11 97 1014.4
20260901135116 72 202 1.0 3.0 0.00 0.13 0.11 97 1014.5
20260901134938 72 202 1.0 3.0 0.00 0.13 0.11 97 1014.5
20260901134615 72 202 1.0 3.0 0.00 0.13 0.11 97 1014.4
20260901134421 72 202 2.0 3.0 0.00 0.13 0.11 97 1014.4
20260901134140 72 202 0.0 3.0 0.00 0.13 0.11 98 1014.4
20260901133947 72 202 1.0 3.0 0.00 0.13 0.11 98 1014.4
20260901133604 72 202 1.0 2.0 0.00 0.13 0.11 99 1014.4
20260901133423 72 202 2.0 2.0 0.00 0.13 0.11 98 1014.4
20260901133121 71 202 1.0 2.0 0.00 0.13 0.11 98 1014.4
20260901132922 71 202 1.0 2.0 0.00 0.13 0.11 98 1014.5
20260901132626 71 202 0.0 2.0 0.00 0.13 0.11 98 1014.5
20260901132408 71 202 1.0 2.0 0.00 0.13 0.11 97 1014.5
20260901132105 71 202 1.0 2.0 0.00 0.13 0.11 98 1014.5
20260901131926 71 202 1.0 2.0 0.00 0.13 0.11 98 1014.6
20260901131608 71 202 0.0 2.0 0.00 0.13 0.11 98 1014.5
20260901131410 71 202 1.0 2.0 0.00 0.13 0.11 98 1014.6
20260901131107 71 202 1.0 2.0 0.00 0.13 0.11 98 1014.6
20260901130907 71 202 1.0 2.0 0.00 0.13 0.11 98 1014.6
20260901130606 71 202 1.0 2.0 0.00 0.13 0.11 98 1014.6
20260901130412 71 202 0.0 2.0 0.00 0.13 0.11 98 1014.7
20260901130110 71 202 0.0 0.0 0.00 0.13 0.11 98 1014.6
20260901125911 71 202 0.0 0.0 0.00 0.13 0.11 98 1014.7
20260901125609 71 202 0.0 1.0 0.00 0.13 0.11 98 1014.6
20260901125437 71 202 0.0 1.0 0.00 0.13 0.11 98 1014.6
20260901125114 71 202 0.0 1.0 0.00 0.13 0.11 98 1014.6
20260901124915 71 202 0.0 1.0 0.00 0.13 0.11 98 1014.8
20260901124611 71 202 0.0 1.0 0.00 0.13 0.11 99 1014.8
20260901124417 71 202 0.0 2.0 0.00 0.13 0.11 98 1014.8
20260901124114 71 202 0.0 3.0 0.00 0.13 0.11 98 1014.7
20260901123915 71 202 0.0 3.0 0.00 0.13 0.11 98 1014.7
20260901123613 71 202 2.0 3.0 0.00 0.13 0.11 98 1014.7
20260901123413 71 202 1.0 3.0 0.00 0.13 0.11 98 1014.6
20260901123118 71 202 2.0 3.0 0.00 0.13 0.11 98 1014.7
20260901122938 71 202 2.0 3.0 0.00 0.13 0.11 98 1014.7
20260901122615 71 202 0.0 0.0 0.00 0.13 0.11 98 1014.7
20260901122422 71 202 0.0 0.0 0.00 0.13 0.11 98 1014.7
20260901122119 71 202 0.0 0.0 0.00 0.13 0.11 98 1014.6
20260901121920 71 202 0.0 1.0 0.01 0.13 0.11 98 1014.7
20260901121618 71 202 0.0 3.0 0.01 0.13 0.11 98 1014.7
20260901121419 71 202 0.0 3.0 0.01 0.13 0.11 98 1014.6
20260901121123 71 202 1.0 3.0 0.01 0.13 0.11 98 1014.5
20260901120923 71 202 1.0 3.0 0.01 0.13 0.11 98 1014.5
20260901120619 71 202 1.0 3.0 0.01 0.13 0.11 98 1014.4
20260901120420 70 202 2.0 3.0 0.01 0.13 0.11 98 1014.3
20260901120117 70 200 0.0 3.0 0.01 0.13 0.11 98 1014.3
20260901115945 70 200 0.0 3.0 0.01 0.13 0.11 98 1014.3
20260901115622 70 200 1.0 3.0 0.01 0.13 0.11 98 1014.3
20260901115449 70 200 1.0 3.0 0.01 0.13 0.11 98 1014.2
20260901115127 70 200 1.0 2.0 0.01 0.13 0.11 98 1014.2
20260901114905 70 200 1.0 2.0 0.01 0.13 0.11 98 1014.2
20260901114625 70 200 0.0 2.0 0.01 0.13 0.11 98 1014.4
20260901114410 70 200 0.0 2.0 0.01 0.13 0.11 98 1014.5
20260901114108 70 200 1.0 2.0 0.01 0.13 0.11 98 1014.5
20260901113909 71 200 1.0 2.0 0.01 0.13 0.11 98 1014.5
20260901113607 71 200 1.0 2.0 0.01 0.13 0.11 98 1014.5
20260901113407 70 200 1.0 2.0 0.01 0.13 0.11 98 1014.5
20260901113112 70 200 1.0 2.0 0.01 0.13 0.11 98 1014.7
20260901112913 70 200 0.0 1.0 0.01 0.13 0.11 98 1014.7
20260901112610 70 200 0.0 0.0 0.01 0.13 0.11 98 1014.7
20260901112411 70 200 0.0 0.0 0.01 0.13 0.11 98 1014.6
20260901112132 70 200 0.0 0.0 0.00 0.12 0.10 98 1014.5
20260901111916 70 200 0.0 0.0 0.00 0.12 0.10 98 1014.6
20260901111610 70 200 0.0 0.0 0.00 0.12 0.10 98 1014.7
20260901111442 70 200 0.0 0.0 0.00 0.12 0.10 98 1014.7
20260901111136 70 200 0.0 0.0 0.00 0.12 0.10 98 1014.6
20260901110926 70 200 0.0 0.0 0.00 0.12 0.10 98 1014.6
20260901110619 70 200 0.0 0.0 0.00 0.12 0.10 98 1014.7
20260901110424 70 200 0.0 0.0 0.00 0.12 0.10 98 1014.8
20260901110118 70 200 0.0 0.0 0.00 0.12 0.10 98 1014.9
20260901105922 70 200 0.0 0.0 0.00 0.12 0.10 98 1014.9
20260901105624 70 200 0.0 0.0 0.00 0.12 0.10 98 1015.0
20260901105428 70 200 0.0 0.0 0.00 0.12 0.10 98 1014.9
20260901105121 70 200 0.0 2.0 0.00 0.12 0.10 98 1014.9
20260901104906 70 200 0.0 2.0 0.00 0.12 0.10 98 1014.9
20260901104626 70 200 0.0 3.0 0.00 0.12 0.10 98 1014.9
20260901104410 70 200 0.0 3.0 0.00 0.12 0.10 98 1014.8
20260901104124 70 200 1.0 3.0 0.00 0.12 0.10 98 1014.8
20260901103908 70 200 0.0 2.0 0.00 0.12 0.10 98 1014.8
20260901103622 70 200 1.0 1.0 0.00 0.12 0.10 98 1014.8
20260901103434 70 200 0.0 0.0 0.00 0.12 0.10 98 1014.8
20260901103107 70 200 0.0 0.0 0.00 0.12 0.10 98 1014.7
20260901102912 70 200 0.0 0.0 0.00 0.12 0.10 98 1014.7
20260901102605 70 200 0.0 0.0 0.00 0.12 0.10 98 1014.7
20260901102410 70 200 0.0 0.0 0.00 0.12 0.10 98 1014.7
20260901102131 70 200 0.0 0.0 0.00 0.12 0.10 98 1014.7
20260901101914 70 200 0.0 0.0 0.00 0.12 0.10 98 1014.7
20260901101636 70 200 0.0 1.0 0.00 0.12 0.10 98 1014.7
20260901101436 70 200 0.0 1.0 0.00 0.12 0.10 98 1014.6
20260901101120 70 200 0.0 1.0 0.00 0.12 0.10 98 1014.7
20260901100921 70 200 0.0 1.0 0.00 0.12 0.10 98 1014.6
20260901100618 70 200 0.0 2.0 0.00 0.12 0.10 98 1014.6
20260901100419 70 200 0.0 2.0 0.00 0.12 0.10 98 1014.5
20260901100115 70 200 0.0 2.0 0.00 0.12 0.10 98 1014.5
20260901095922 70 200 1.0 2.0 0.00 0.12 0.10 98 1014.5
20260901095620 70 200 1.0 2.0 0.00 0.12 0.10 98 1014.6
20260901095420 70 200 1.0 2.0 0.00 0.12 0.10 98 1014.5
20260901095118 70 200 0.0 2.0 0.00 0.12 0.10 98 1014.6
20260901094918 70 200 1.0 2.0 0.00 0.12 0.10 98 1014.7
20260901094622 70 200 0.0 2.0 0.00 0.12 0.10 98 1014.6
20260901094422 70 200 1.0 2.0 0.00 0.12 0.10 98 1014.5
20260901094120 70 200 1.0 2.0 0.00 0.12 0.10 98 1014.4
20260901093920 70 200 1.0 2.0 0.00 0.12 0.10 98 1014.6
20260901093619 70 200 0.0 1.0 0.00 0.12 0.10 98 1014.6
20260901093425 70 200 0.0 1.0 0.00 0.12 0.10 97 1014.6
20260901093122 70 200 0.0 0.0 0.00 0.12 0.10 98 1014.6
20260901092923 70 200 0.0 0.0 0.00 0.12 0.10 98 1014.6
20260901092621 70 200 0.0 0.0 0.00 0.12 0.10 98 1014.5
20260901092449 70 200 0.0 0.0 0.00 0.12 0.10 97 1014.5
20260901092105 70 200 0.0 0.0 0.00 0.12 0.10 97 1014.6
20260901091905 70 200 0.0 0.0 0.00 0.12 0.10 97 1014.6
20260901091622 70 200 0.0 0.0 0.00 0.12 0.10 97 1014.5
20260901091428 70 200 0.0 0.0 0.00 0.12 0.10 97 1014.5
20260901091123 70 200 0.0 0.0 0.00 0.12 0.10 97 1014.6
20260901090932 70 200 0.0 0.0 0.00 0.12 0.10 97 1014.6
20260901090628 70 200 0.0 1.0 0.00 0.12 0.10 97 1014.6
20260901090430 70 200 0.0 1.0 0.00 0.12 0.10 97 1014.6
20260901090107 70 200 0.0 1.0 0.00 0.12 0.10 97 1014.6
20260901085907 70 200 1.0 1.0 0.00 0.12 0.10 97 1014.6
20260901085632 70 200 0.0 1.0 0.00 0.12 0.10 98 1014.6
20260901085412 70 200 0.0 1.0 0.00 0.12 0.10 97 1014.6
20260901085110 70 200 0.0 1.0 0.00 0.12 0.10 97 1014.7
20260901084937 70 200 0.0 1.0 0.00 0.12 0.10 97 1014.7
20260901084635 70 200 0.0 2.0 0.00 0.12 0.10 97 1014.7
20260901084420 70 200 0.0 2.0 0.00 0.12 0.10 97 1014.7
20260901084138 70 200 0.0 2.0 0.00 0.12 0.10 97 1014.8
20260901083945 70 200 1.0 2.0 0.00 0.12 0.10 97 1014.8
20260901083618 70 200 1.0 2.0 0.00 0.12 0.10 98 1014.9
20260901083443 70 200 1.0 1.0 0.00 0.12 0.10 97 1014.9
20260901083122 70 200 0.0 2.0 0.00 0.12 0.10 97 1015.0
20260901082927 70 200 0.0 2.0 0.00 0.12 0.10 97 1014.9
20260901082620 70 200 0.0 2.0 0.00 0.12 0.10 97 1015.0
20260901082431 70 200 0.0 2.0 0.00 0.12 0.10 97 1014.9
20260901082125 70 200 1.0 2.0 0.00 0.12 0.10 97 1014.9
20260901081909 70 200 0.0 2.0 0.00 0.12 0.10 97 1014.9
20260901081629 70 200 1.0 2.0 0.00 0.12 0.10 97 1014.9
20260901081414 70 200 1.0 2.0 0.00 0.12 0.10 97 1014.9
20260901081108 70 200 0.0 2.0 0.00 0.12 0.10 97 1015.0
20260901080910 70 200 0.0 2.0 0.00 0.12 0.10 97 1015.0
20260901080624 70 200 1.0 2.0 0.00 0.12 0.10 97 1015.0
20260901080409 70 200 0.0 1.0 0.00 0.12 0.10 97 1015.0
20260901080129 70 200 1.0 1.0 0.01 0.12 0.10 97 1014.9
20260901075912 70 200 0.0 2.0 0.01 0.12 0.10 97 1014.9
20260901075606 71 200 0.0 2.0 0.02 0.12 0.10 97 1015.0
20260901075410 71 200 0.0 2.0 0.02 0.12 0.10 98 1015.0
20260901075110 70 200 1.0 2.0 0.02 0.12 0.10 98 1015.0
20260901074913 70 200 0.0 1.0 0.02 0.12 0.10 97 1014.9
20260901074607 70 200 0.0 0.0 0.02 0.12 0.10 97 1015.0
20260901074412 70 200 0.0 0.0 0.02 0.12 0.10 97 1015.1
20260901074106 70 200 0.0 0.0 0.02 0.12 0.10 97 1015.0
20260901073917 70 200 0.0 1.0 0.02 0.12 0.10 97 1015.1
20260901073611 70 200 0.0 1.0 0.02 0.12 0.10 97 1015.1
20260901073415 70 200 0.0 1.0 0.02 0.12 0.10 97 1015.0
20260901073108 70 200 0.0 2.0 0.02 0.12 0.10 97 1015.1
20260901072913 70 200 0.0 2.0 0.02 0.12 0.10 97 1015.1
20260901072614 70 200 0.0 2.0 0.02 0.12 0.10 97 1015.2
20260901072417 70 200 0.0 2.0 0.02 0.12 0.10 97 1015.2
20260901072110 70 200 0.0 2.0 0.02 0.12 0.10 97 1015.2
20260901071914 70 200 0.0 2.0 0.02 0.12 0.10 97 1015.3
20260901071636 70 200 1.0 2.0 0.02 0.12 0.10 97 1015.2
20260901071419 70 200 1.0 2.0 0.02 0.12 0.10 97 1015.3
20260901071113 70 200 0.0 2.0 0.02 0.12 0.10 97 1015.3
20260901070925 70 200 1.0 2.0 0.02 0.12 0.10 97 1015.3
20260901070618 70 200 0.0 1.0 0.02 0.12 0.10 97 1015.3
20260901070423 70 200 0.0 2.0 0.02 0.12 0.10 97 1015.3
20260901070117 70 200 0.0 3.0 0.01 0.11 0.09 97 1015.4
20260901065944 70 200 0.0 3.0 0.01 0.11 0.09 97 1015.3
20260901065621 70 200 2.0 4.0 0.00 0.10 0.08 97 1015.2
20260901065405 70 202 2.0 5.0 0.00 0.10 0.08 97 1015.3
20260901065116 70 202 2.0 5.0 0.00 0.10 0.08 97 1015.3
20260901064916 70 202 2.0 5.0 0.00 0.10 0.08 97 1015.3
20260901064620 70 202 4.0 5.0 0.00 0.10 0.08 97 1015.3
20260901064406 70 187 4.0 5.0 0.00 0.10 0.08 97 1015.4
20260901064140 70 304 2.0 4.0 0.00 0.10 0.08 97 1015.7
20260901063926 70 303 2.0 4.0 0.00 0.10 0.08 97 1015.7
20260901063623 70 303 2.0 4.0 0.00 0.10 0.08 97 1015.7
20260901063424 70 270 2.0 3.0 0.00 0.10 0.08 97 1015.7
20260901063118 70 228 2.0 3.0 0.00 0.10 0.08 97 1015.6
20260901062925 70 228 2.0 3.0 0.00 0.10 0.08 97 1015.6
20260901062622 70 227 2.0 3.0 0.00 0.10 0.08 97 1015.7
20260901062422 70 227 2.0 3.0 0.00 0.10 0.08 97 1015.7
20260901062120 70 227 0.0 2.0 0.00 0.10 0.08 97 1015.6
20260901061948 70 227 0.0 2.0 0.00 0.10 0.08 97 1015.6
20260901061605 70 227 1.0 2.0 0.00 0.10 0.08 97 1015.6
20260901061406 70 227 0.0 2.0 0.00 0.10 0.08 97 1015.6
20260901061131 70 227 0.0 2.0 0.00 0.10 0.08 97 1015.5
20260901060911 70 227 1.0 2.0 0.00 0.10 0.08 97 1015.5
20260901060629 70 227 1.0 4.0 0.00 0.10 0.08 97 1015.5
20260901060414 70 227 1.0 4.0 0.00 0.10 0.08 97 1015.5
20260901060112 70 227 2.0 4.0 0.00 0.10 0.08 97 1015.6
20260901055913 70 227 2.0 4.0 0.00 0.10 0.08 97 1015.6
20260901055639 70 227 1.0 2.0 0.00 0.10 0.08 97 1015.6
20260901055438 70 227 1.0 2.0 0.00 0.10 0.08 97 1015.7
20260901055115 70 227 0.0 2.0 0.00 0.10 0.08 97 1015.8
20260901054922 70 227 0.0 0.0 0.00 0.10 0.08 97 1015.8
20260901054619 70 227 0.0 1.0 0.00 0.10 0.08 97 1015.9
20260901054418 70 227 0.0 2.0 0.00 0.10 0.08 97 1015.8
20260901054116 70 227 0.0 3.0 0.00 0.10 0.08 96 1015.8
20260901053944 70 227 0.0 4.0 0.00 0.10 0.08 96 1015.8
20260901053621 70 227 2.0 4.0 0.00 0.10 0.08 97 1015.8
20260901053422 70 227 1.0 4.0 0.00 0.10 0.08 97 1015.8
20260901053120 70 227 1.0 4.0 0.00 0.10 0.08 97 1015.9
20260901052919 70 227 1.0 4.0 0.00 0.10 0.08 97 1015.8
20260901052623 70 227 2.0 4.0 0.00 0.10 0.08 97 1015.8
20260901052405 70 227 2.0 4.0 0.00 0.10 0.08 96 1015.9
20260901052121 71 228 2.0 3.0 0.00 0.10 0.08 96 1015.9
20260901051921 71 228 2.0 2.0 0.00 0.10 0.08 96 1015.9
20260901051625 71 228 0.0 0.0 0.00 0.10 0.08 96 1016.0
20260901051408 71 228 0.0 0.0 0.00 0.10 0.08 96 1016.0
20260901051125 71 228 0.0 0.0 0.01 0.10 0.08 96 1016.0
20260901050905 71 228 0.0 0.0 0.02 0.10 0.08 97 1016.0
20260901050623 71 228 0.0 0.0 0.03 0.10 0.08 96 1016.1
20260901050430 70 228 0.0 0.0 0.03 0.10 0.08 96 1016.1
20260901050129 71 228 0.0 0.0 0.05 0.10 0.08 96 1016.2
20260901045908 71 228 0.0 0.0 0.06 0.10 0.08 96 1016.2
20260901045605 71 227 0.0 0.0 0.07 0.10 0.08 96 1016.2
20260901045406 71 228 0.0 0.0 0.07 0.10 0.08 96 1016.2
20260901045110 71 228 0.0 0.0 0.07 0.10 0.08 96 1016.1
20260901044932 71 228 0.0 2.0 0.08 0.10 0.08 96 1016.1
20260901044630 71 228 0.0 2.0 0.08 0.10 0.08 96 1016.1
20260901044414 71 228 0.0 2.0 0.08 0.10 0.08 96 1016.1
20260901044129 71 228 0.0 1.0 0.08 0.10 0.08 96 1016.2
20260901043912 71 227 0.0 0.0 0.08 0.10 0.08 96 1016.2
20260901043606 71 228 0.0 1.0 0.08 0.10 0.08 96 1016.1
20260901043417 71 228 0.0 2.0 0.09 0.10 0.08 96 1016.2
20260901043111 71 228 0.0 2.0 0.09 0.10 0.08 96 1016.1
20260901042916 71 228 0.0 2.0 0.09 0.10 0.08 96 1016.2
20260901042608 71 228 0.0 1.0 0.09 0.10 0.08 96 1016.1
20260901042419 71 228 0.0 1.0 0.09 0.10 0.08 96 1016.2
20260901042112 71 228 1.0 1.0 0.09 0.10 0.08 96 1016.1
20260901041916 71 228 0.0 0.0 0.09 0.10 0.08 95 1016.2
20260901041610 71 228 0.0 1.0 0.09 0.10 0.08 95 1016.2
20260901041415 71 228 0.0 3.0 0.09 0.10 0.08 95 1016.3
20260901041115 71 228 0.0 3.0 0.08 0.09 0.07 95 1016.3
20260901040919 71 228 1.0 3.0 0.07 0.08 0.06 95 1016.4
20260901040634 71 228 1.0 3.0 0.06 0.07 0.05 95 1016.3